1290038433653,106.335
1290038493653,106.446
1290038553652,106.185
1290038613652,106.584
1290038673652,106.193
1290038733652,106.364
1290038793653,106.419
1290038853653,106.408
1290038913653,106.436
1290038973653,106.426
1290039033653,106.207
1290039093653,106.367
1290039153653,106.403
1290039213653,106.315
1290039273653,106.430
1290039333653,106.375
1290039393653,106.536
1290039453653,106.377
1290039513653,106.098
1290039573653,106.432
1290039633653,106.446
1290039693653,106.522
1290039753653,106.331
1290039813653,106.327
1290039873653,106.198
1290039933652,106.741
1290039993652,106.409
1290040053652,106.731
1290040113653,106.449
1290040173653,106.440
1290040233653,106.607
1290040293653,106.603
1290040353653,106.523
1290040413653,106.533
1290040473653,106.633
1290040533653,106.506
1290040593653,106.249
1290040653653,106.164
1290040713653,106.239
1290040773653,106.184
1290040833653,106.650
1290040893653,106.569
1290040953653,106.874
1290041013653,106.538
1290041073653,106.592
1290041133653,106.329
1290041193653,106.548
1290041253652,106.592
1290041313652,106.372
1290041373652,106.362
1290041433652,106.443
1290041493653,106.242
1290041553653,106.524
1290041613653,106.473
1290041673653,106.385
1290041733653,106.606
1290041793653,106.516
1290041853653,106.670
1290041913653,106.518
1290041973653,106.326
1290042033662,106.248
1290042093662,106.565
1290042153662,106.493
1290042213662,106.568
1290042273662,106.393
1290042333662,106.526
1290042393662,106.624
1290042453662,106.505
1290042513662,106.371
1290042573662,106.416
1290042633662,106.404
1290042693662,106.307
1290042753662,106.443
1290042813662,106.529
1290042873662,106.417
1290042933662,106.443
1290042993662,106.474
1290043053662,106.661
1290043113662,106.379
1290043173662,106.191
1290043233662,106.496
1290043293662,106.186
1290043353662,106.334
1290043413662,106.422
1290043473662,106.408
1290043533662,106.610
1290043593662,106.310
1290043653662,106.532
1290043713662,106.474
1290043773662,106.440
1290043833662,106.579
1290043893662,106.446
1290043953662,106.611
1290044013662,106.530
1290044073662,106.259
1290044133662,106.286
1290044193662,106.367
1290044253662,106.617
1290044313662,106.515
1290044373662,106.189
1290044433662,106.279
1290044493662,106.512
1290044553662,106.524
1290044613662,106.136
1290044673662,106.316
1290044733662,106.394
1290044793662,106.196
1290044853662,106.418
1290044913662,106.224
1290044973662,106.084
1290045033662,106.287
1290045093662,106.422
1290045153662,106.279
1290045213662,106.401
1290045273662,106.155
1290045333662,106.298
1290045393662,106.289
1290045453662,106.307
1290045513662,106.320
1290045573662,106.303
1290045633672,106.201
1290045693672,106.189
1290045753672,106.317
1290045813672,106.283
1290045873672,106.317
1290045933672,106.071
1290045993672,106.021
1290046053672,106.230
1290046113672,106.155
1290046173672,106.065
1290046233672,106.060
1290046293672,105.976
1290046353672,106.021
1290046413672,105.994
1290046473672,106.146
1290046533672,105.944
1290046593672,105.882
1290046653672,105.816
1290046713672,106.024
1290046773672,105.882
1290046833672,105.808
1290046893672,105.867
1290046953672,105.707
1290047013672,105.522
1290047073672,105.783
1290047133672,105.874
1290047193672,105.624
1290047253672,105.801
1290047313672,105.962
1290047373672,105.926
1290047433672,105.701
1290047493672,105.624
1290047553672,105.871
1290047613672,105.703
1290047673672,105.957
1290047733672,105.953
1290047793672,105.914
1290047853672,105.742
1290047913672,105.690
1290047973672,105.752
1290048033672,105.901
1290048093672,105.830
1290048153672,105.916
1290048213672,105.960
1290048273672,105.691
1290048333672,105.664
1290048393672,105.920
1290048453672,105.689
1290048513672,105.851
1290048573672,105.772
1290048633672,105.725
1290048693672,105.801
1290048753672,105.780
1290048813672,105.705
1290048873672,105.667
1290048933672,105.696
1290048993672,105.576
1290049053672,105.726
1290049113672,105.683
1290049173672,105.629
1290049233682,105.710
1290049293682,105.842
1290049353682,105.757
1290049413682,105.705
1290049473681,105.523
1290049533682,105.504
1290049593682,105.667
1290049653682,105.482
1290049713682,105.650
1290049773682,105.522
1290049833682,105.513
1290049893682,105.641
1290049953682,105.796
1290050013682,105.603
1290050073682,105.473
1290050133682,105.549
1290050193681,105.823
1290050253681,105.569
1290050313681,105.478
1290050373681,105.518
1290050433681,105.460
1290050493681,105.633
1290050553682,105.568
1290050613682,105.658
1290050673682,105.663
1290050733682,105.694
1290050793682,105.586
1290050853681,105.543
1290050913682,105.690
1290050973682,105.703
1290051033682,105.682
1290051093682,105.862
1290051153682,105.681
1290051213682,105.906
1290051273682,105.645
1290051333682,105.813
1290051393682,105.419
1290051453682,105.612
1290051513681,105.752
1290051573681,105.605
1290051633681,105.643
1290051693681,105.691
1290051753681,105.808
1290051813681,105.847
1290051873682,105.631
1290051933682,105.688
1290051993682,105.854
1290052053682,105.670
1290052113682,105.630
1290052173681,105.621
1290052233682,105.741
1290052293682,105.671
1290052353682,105.717
1290052413682,105.707
1290052473682,105.791
1290052533682,105.639
1290052593682,105.757
1290052653682,105.512
1290052713682,105.624
1290052773682,105.733
1290052833691,105.622
1290052893691,105.666
1290052953691,105.716
1290053013691,105.772
1290053073691,105.738
1290053133691,105.817
1290053193691,105.505
1290053253691,105.575
1290053313691,105.599
1290053373691,105.581
1290053433691,105.622
1290053493691,105.629
1290053553691,105.638
1290053613691,105.655
1290053673691,105.512
1290053733691,105.734
1290053793691,105.638
1290053853691,105.652
1290053913691,105.537
1290053973691,105.442
1290054033691,105.758
1290054093691,105.648
1290054153691,105.660
1290054213691,105.615
1290054273691,105.648
1290054333691,105.442
1290054393691,105.691
1290054453691,105.765
1290054513691,105.605
1290054573691,105.742
1290054633691,105.569
1290054693691,105.546
1290054753691,105.355
1290054813691,105.543
1290054873691,105.671
1290054933691,105.655
1290054993691,105.603
1290055053691,105.682
1290055113691,105.644
1290055173691,105.616
1290055233691,105.524
1290055293691,105.817
1290055353691,105.681
1290055413691,105.576
1290055473691,105.600
1290055533691,105.395
1290055593691,105.525
1290055653691,105.442
1290055713691,105.684
1290055773691,105.736
1290055833691,105.660
1290055893691,105.548
1290055953691,105.706
1290056013691,105.584
1290056073691,105.216
1290056133691,105.520
1290056193691,105.627
1290056253691,105.660
1290056313691,105.455
1290056373691,105.525
1290056433701,105.307
1290056493701,105.435
1290056553701,105.353
1290056613701,105.495
1290056673701,105.375
1290056733701,105.346
1290056793701,105.603
1290056853701,105.463
1290056913701,105.288
1290056973701,105.267
1290057033701,105.455
1290057093701,105.305
1290057153701,105.322
1290057213701,105.316
1290057273701,105.556
1290057333701,105.483
1290057393701,105.412
1290057453701,105.341
1290057513701,105.602
1290057573701,105.413
1290057633701,105.499
1290057693701,105.416
1290057753701,105.115
1290057813701,105.343
1290057873701,105.380
1290057933701,105.430
1290057993701,105.640
1290058053701,105.414
1290058113701,105.437
1290058173701,105.410
1290058233701,105.306
1290058293701,105.939
1290058353701,105.379
1290058413701,105.324
1290058473701,105.530
1290058533701,105.599
1290058593701,105.662
1290058653701,105.457
1290058713701,105.746
1290058773701,105.494
1290058833701,105.416
1290058893701,105.228
1290058953701,105.378
1290059013701,105.492
1290059073701,105.549
1290059133701,105.537
1290059193701,105.401
1290059253701,105.450
1290059313701,105.285
1290059373701,105.483
1290059433701,105.359
1290059493701,105.375
1290059553701,105.196
1290059613701,105.372
1290059673701,105.366
1290059733701,105.156
1290059793701,105.489
1290059853701,105.294
1290059913701,105.199
1290059973701,105.311
1290060033711,105.350
1290060093711,105.240
1290060153711,105.172
1290060213711,105.262
1290060273711,105.298
1290060333711,105.380
1290060393711,105.313
1290060453711,105.265
1290060513711,105.205
1290060573711,105.043
1290060633711,105.125
1290060693711,104.982
1290060753711,104.975
1290060813711,105.152
1290060873711,105.131
1290060933711,105.206
1290060993711,105.201
1290061053711,105.191
1290061113711,105.310
1290061173711,105.299
1290061233711,105.057
1290061293711,105.190
1290061353711,105.079
1290061413711,105.213
1290061473711,105.226
1290061533711,105.165
1290061593711,105.078
1290061653711,105.068
1290061713711,105.220
1290061773711,105.156
1290061833711,105.115
1290061893711,105.261
1290061953711,105.066
1290062013711,105.027
1290062073711,105.083
1290062133711,105.111
1290062193711,105.034
1290062253711,105.275
1290062313711,105.051
1290062373711,105.010
1290062433711,105.188
1290062493711,104.982
1290062553711,105.056
1290062613711,104.999
1290062673711,105.089
1290062733711,105.089
1290062793711,105.043
1290062853711,105.093
1290062913711,105.140
1290062973711,105.076
1290063033711,105.047
1290063093711,104.949
1290063153711,104.921
1290063213711,104.970
1290063273711,105.065
1290063333711,105.013
1290063393711,104.850
1290063453711,104.993
1290063513711,105.028
1290063573711,105.078
1290063633721,104.860
1290063693721,105.066
1290063753721,104.938
1290063813721,105.097
1290063873721,105.120
1290063933721,105.015
1290063993721,105.070
1290064053721,105.074
1290064113721,104.957
1290064173721,105.197
1290064233721,105.093
1290064293721,104.873
1290064353721,105.066
1290064413721,104.910
1290064473721,104.744
1290064533721,104.680
1290064593721,105.094
1290064653721,104.772
1290064713721,104.900
1290064773721,104.863
1290064833721,104.889
1290064893721,105.011
1290064953721,104.878
1290065013721,105.010
1290065073721,104.961
1290065133721,104.883
1290065193721,105.072
1290065253721,105.108
1290065313721,104.900
1290065373721,104.564
1290065433721,104.985
1290065493721,104.789
1290065553721,105.019
1290065613721,104.794
1290065673721,104.919
1290065733721,104.772
1290065793721,104.770
1290065853721,105.000
1290065913721,105.020
1290065973721,104.759
1290066033721,104.930
1290066093721,104.965
1290066153721,104.889
1290066213721,105.106
1290066273721,104.746
1290066333721,104.988
1290066393721,104.982
1290066453721,104.761
1290066513721,104.893
1290066573721,104.849
1290066633721,104.839
1290066693721,104.685
1290066753721,105.069
1290066813721,104.928
1290066873721,104.866
1290066933721,104.747
1290066993721,104.974
1290067053721,105.057
1290067113721,104.793
1290067173721,104.758
1290067233731,104.759
1290067293731,104.852
1290067353731,104.756
1290067413731,105.009
1290067473731,104.671
1290067533731,104.892
1290067593731,104.992
1290067653731,104.848
1290067713731,105.002
1290067773731,104.772
1290067833731,104.945
1290067893731,104.653
1290067953731,104.957
1290068013731,105.213
1290068073731,104.897
1290068133731,105.166
1290068193731,104.952
1290068253731,104.888
1290068313731,104.843
1290068373731,104.882
1290068433731,104.833
1290068493731,105.035
1290068553731,104.883
1290068613731,104.658
1290068673731,104.998
1290068733731,104.938
1290068793731,104.733
1290068853731,105.083
1290068913731,104.853
1290068973731,105.041
1290069033731,105.174
1290069093731,104.932
1290069153731,105.199
1290069213731,105.224
1290069273731,105.085
1290069333731,105.097
1290069393731,105.018
1290069453731,105.131
1290069513731,105.079
1290069573731,105.057
1290069633731,105.114
1290069693731,104.929
1290069753731,104.814
1290069813731,104.965
1290069873731,104.858
1290069933731,104.896
1290069993731,104.984
1290070053731,104.956
1290070113731,105.013
1290070173731,104.929
1290070233731,104.883
1290070293731,104.782
1290070353731,105.118
1290070413731,105.005
1290070473731,105.101
1290070533731,105.151
1290070593731,105.039
1290070653731,104.974
1290070713731,105.050
1290070773731,104.958
1290070833742,105.073
1290070893742,104.999
1290070953742,105.051
1290071013742,105.048
1290071073742,104.875
1290071133742,105.124
1290071193742,105.127
1290071253742,105.067
1290071313742,105.063
1290071373742,105.167
1290071433742,105.040
1290071493742,105.174
1290071553742,104.994
1290071613742,105.087
1290071673742,105.149
1290071733742,105.009
1290071793742,105.022
1290071853742,105.090
1290071913742,104.960
1290071973742,104.974
1290072033742,104.707
1290072093742,105.045
1290072153742,104.949
1290072213742,105.100
1290072273742,105.128
1290072333742,104.966
1290072393742,104.991
1290072453742,105.062
1290072513742,105.017
1290072573742,105.054
1290072633742,105.135
1290072693742,105.230
1290072753742,105.064
1290072813742,105.119
1290072873742,104.917
1290072933742,104.972
1290072993742,105.043
1290073053742,105.042
1290073113742,105.096
1290073173742,104.933
1290073233742,104.982
1290073293742,104.990
1290073353742,105.066
1290073413742,105.109
1290073473742,105.132
1290073533742,105.314
1290073593742,105.084
1290073653742,105.203
1290073713742,105.084
1290073773742,105.090
1290073833742,105.078
1290073893742,105.060
1290073953742,105.089
1290074013742,104.891
1290074073742,104.984
1290074133742,105.070
1290074193742,105.030
1290074253742,104.923
1290074313742,105.028
1290074373742,105.234
1290074433753,104.953
1290074493753,104.931
1290074553753,104.890
1290074613753,104.991
1290074673753,104.980
1290074733753,105.141
1290074793753,104.916
1290074853753,104.943
1290074913753,104.911
1290074973753,105.133
1290075033753,104.903
1290075093753,105.064
1290075153753,105.064
1290075213753,104.972
1290075273753,104.934
1290075333753,104.989
1290075393753,105.012
1290075453753,104.752
1290075513753,104.967
1290075573753,104.974
1290075633753,104.992
1290075693753,105.160
1290075753753,105.015
1290075813753,104.857
1290075873753,105.053
1290075933753,104.938
1290075993753,105.078
1290076053753,104.975
1290076113753,104.886
1290076173753,105.066
1290076233753,105.154
1290076293753,105.105
1290076353753,105.336
1290076413753,105.258
1290076473753,105.117
1290076533753,105.212
1290076593753,105.045
1290076653753,105.107
1290076713753,105.147
1290076773753,105.298
1290076833753,105.059
1290076893753,105.192
1290076953753,105.292
1290077013753,104.860
1290077073753,105.068
1290077133753,104.952
1290077193753,104.931
1290077253753,105.005
1290077313753,105.225
1290077373753,105.014
1290077433753,104.839
1290077493753,104.903
1290077553753,105.189
1290077613753,105.014
1290077673753,105.067
1290077733753,104.920
1290077793753,104.990
1290077853753,104.955
1290077913753,105.066
1290077973753,104.886
1290078033764,105.010
1290078093764,104.605
1290078153764,104.995
1290078213764,104.699
1290078273764,105.039
1290078333764,104.861
1290078393764,104.819
1290078453764,104.692
1290078513764,104.990
1290078573764,104.868
1290078633764,104.893
1290078693764,104.930
1290078753764,104.796
1290078813764,104.904
1290078873764,104.813
1290078933764,104.913
1290078993764,104.889
1290079053764,104.933
1290079113764,104.850
1290079173764,104.780
1290079233764,105.014
1290079293764,104.971
1290079353764,104.753
1290079413764,104.812
1290079473764,105.045
1290079533764,104.841
1290079593764,104.874
1290079653764,104.946
1290079713764,105.214
1290079773764,104.849
1290079833764,104.754
1290079893764,105.151
1290079953764,105.119
1290080013764,104.948
1290080073764,105.090
1290080133764,105.059
1290080193764,104.864
1290080253764,105.352
1290080313764,105.371
1290080373764,105.474
1290080433764,105.495
1290080493764,105.294
1290080553764,105.451
1290080613764,105.171
1290080673764,105.216
1290080733764,105.192
1290080793764,105.378
1290080853764,105.502
1290080913764,105.282
1290080973764,105.794
1290081033764,105.548
1290081093764,105.439
1290081153764,105.507
1290081213764,105.480
1290081273764,105.480
1290081333764,105.418
1290081393764,105.527
1290081453764,105.637
1290081513764,105.454
1290081573764,105.464
1290081633800,105.498
1290081693800,105.627
1290081753800,105.480
1290081813800,105.585
1290081873800,105.553
1290081933800,105.577
1290081993800,105.367
1290082053800,105.525
1290082113800,105.434
1290082173800,105.744
1290082233800,105.618
1290082293800,105.603
1290082353800,105.557
1290082413800,105.455
1290082473800,105.600
1290082533800,105.532
1290082593800,105.427
1290082653800,105.492
1290082713800,105.249
1290082773800,105.594
1290082833800,105.440
1290082893800,105.581
1290082953800,105.521
1290083013800,105.496
1290083073800,105.476
1290083133800,105.452
1290083193800,105.365
1290083253800,105.475
1290083313800,105.489
1290083373800,105.464
1290083433800,105.253
1290083493800,105.458
1290083553800,105.307
1290083613800,105.550
1290083673800,105.550
1290083733800,105.424
1290083793800,105.660
1290083853800,105.559
1290083913800,105.544
1290083973800,105.408
1290084033800,105.417
1290084093800,105.441
1290084153800,105.262
1290084213800,105.245
1290084273800,105.532
1290084333800,105.502
1290084393800,105.501
1290084453800,105.222
1290084513800,105.313
1290084573800,105.277
1290084633800,105.344
1290084693800,105.138
1290084753800,105.169
1290084813800,105.293
1290084873800,105.385
1290084933800,105.379
1290084993800,105.570
1290085053800,105.143
1290085113800,105.221
1290085173800,105.343
1290085233812,105.493
1290085293812,105.234
1290085353812,105.272
1290085413812,105.213
1290085473812,105.117
1290085533812,105.302
1290085593812,105.336
1290085653812,105.438
1290085713812,105.066
1290085773812,105.083
1290085833812,105.238
1290085893812,105.323
1290085953812,105.167
1290086013812,105.134
1290086073812,105.173
1290086133812,105.357
1290086193812,105.068
1290086253812,105.099
1290086313812,105.256
1290086373812,104.939
1290086433812,105.069
1290086493812,105.102
1290086553812,105.162
1290086613812,105.434
1290086673812,105.222
1290086733812,105.377
1290086793812,105.163
1290086853812,104.987
1290086913812,105.280
1290086973812,105.070
1290087033812,105.241
1290087093812,105.045
1290087153812,105.109
1290087213812,105.118
1290087273812,104.837
1290087333812,105.160
1290087393812,105.141
1290087453812,105.205
1290087513812,105.089
1290087573812,105.055
1290087633812,105.129
1290087693812,105.033
1290087753812,104.977
1290087813812,105.264
1290087873812,105.084
1290087933812,105.261
1290087993812,104.906
1290088053812,105.040
1290088113812,104.985
1290088173812,105.083
1290088233812,105.163
1290088293812,104.987
1290088353812,104.986
1290088413812,105.253
1290088473812,105.132
1290088533812,104.947
1290088593812,104.994
1290088653812,104.975
1290088713812,105.102
1290088773812,105.122
1290088833824,104.932
1290088893824,104.977
1290088953824,105.261
1290089013824,104.966
1290089073824,105.115
1290089133824,104.880
1290089193824,105.069
1290089253824,104.781
1290089313824,104.965
1290089373824,104.670
1290089433824,104.795
1290089493824,105.084
1290089553824,104.907
1290089613824,105.078
1290089673824,104.646
1290089733824,104.862
1290089793824,104.571
1290089853824,104.862
1290089913824,104.750
1290089973824,104.670
1290090033824,104.635
1290090093824,104.681
1290090153824,104.529
1290090213824,104.772
1290090273824,104.759
1290090333824,104.731
1290090393824,104.744
1290090453824,104.629
1290090513824,104.743
1290090573824,104.628
1290090633824,104.524
1290090693824,104.527
1290090753824,104.648
1290090813824,104.541
1290090873824,104.521
1290090933824,104.602
1290090993824,104.780
1290091053824,104.510
1290091113824,104.424
1290091173824,104.729
1290091233824,104.640
1290091293824,104.785
1290091353824,104.600
1290091413824,104.522
1290091473824,104.514
1290091533824,104.259
1290091593824,104.539
1290091653824,104.443
1290091713824,104.455
1290091773824,104.592
1290091833824,104.667
1290091893824,104.591
1290091953824,104.795
1290092013824,104.814
1290092073824,104.509
1290092133824,104.574
1290092193824,104.762
1290092253824,104.764
1290092313824,104.564
1290092373824,104.440
1290092433837,104.524
1290092493837,104.363
1290092553837,104.330
1290092613837,104.536
1290092673837,104.390
1290092733837,104.558
1290092793837,104.421
1290092853837,104.395
1290092913837,104.395
1290092973837,104.618
1290093033837,104.638
1290093093837,104.438
1290093153837,104.462
1290093213837,104.333
1290093273837,104.346
1290093333837,104.475
1290093393837,104.319
1290093453837,104.425
1290093513837,104.319
1290093573837,104.127
1290093633837,104.171
1290093693837,104.407
1290093753837,104.432
1290093813837,104.519
1290093873837,104.134
1290093933837,104.246
1290093993837,104.374
1290094053837,104.363
1290094113837,104.284
1290094173837,104.371
1290094233837,104.190
1290094293837,104.400
1290094353837,104.225
1290094413837,104.485
1290094473837,104.228
1290094533837,104.231
1290094593837,104.182
1290094653837,104.375
1290094713837,104.143
1290094773837,104.123
1290094833837,104.219
1290094893837,104.227
1290094953837,103.888
1290095013837,104.029
1290095073837,104.334
1290095133837,104.059
1290095193837,104.073
1290095253837,104.246
1290095313837,103.942
1290095373837,103.923
1290095433837,103.982
1290095493837,104.007
1290095553837,103.934
1290095613837,103.775
1290095673837,104.059
1290095733837,103.935
1290095793837,103.890
1290095853837,103.957
1290095913837,103.873
1290095973837,103.815
1290096033849,103.594
1290096093849,103.795
1290096153849,103.716
1290096213849,103.557
1290096273849,103.683
1290096333849,103.754
1290096393849,103.670
1290096453849,103.561
1290096513849,103.578
1290096573849,103.614
1290096633849,103.444
1290096693849,103.449
1290096753849,103.471
1290096813849,103.632
1290096873849,103.557
1290096933849,103.571
1290096993849,103.566
1290097053849,103.345
1290097113849,103.651
1290097173849,103.413
1290097233849,103.565
1290097293849,103.583
1290097353849,103.314
1290097413849,103.678
1290097473849,103.161
1290097533849,103.422
1290097593849,103.304
1290097653849,103.441
1290097713849,103.280
1290097773849,103.021
1290097833849,103.335
1290097893849,103.339
1290097953849,103.517
1290098013849,103.251
1290098073849,103.294
1290098133849,103.155
1290098193849,103.243
1290098253849,103.130
1290098313849,103.408
1290098373849,103.040
1290098433849,103.284
1290098493849,103.131
1290098553849,103.074
1290098613849,103.196
1290098673849,103.190
1290098733849,103.048
1290098793849,102.995
1290098853849,102.956
1290098913849,103.097
1290098973849,102.944
1290099033849,103.066
1290099093849,103.087
1290099153849,103.221
1290099213849,103.206
1290099273849,103.107
1290099333849,102.856
1290099393849,103.079
1290099453849,102.937
1290099513849,103.107
1290099573849,102.910
1290099633861,103.042
1290099693861,103.194
1290099753861,102.934
1290099813861,102.864
1290099873861,102.866
1290099933861,102.799
1290099993861,102.780
1290100053861,102.783
1290100113861,102.750
1290100173861,102.916
1290100233861,102.826
1290100293861,102.636
1290100353861,102.836
1290100413861,102.833
1290100473861,102.795
1290100533861,102.954
1290100593861,102.732
1290100653861,102.711
1290100713861,102.851
1290100773861,102.702
1290100833861,102.670
1290100893861,102.679
1290100953861,102.882
1290101013861,102.729
1290101073861,102.736
1290101133861,102.670
1290101193861,102.574
1290101253861,102.581
1290101313861,102.652
1290101373861,102.656
1290101433861,102.480
1290101493861,102.506
1290101553861,102.612
1290101613861,102.858
1290101673861,102.636
1290101733861,102.775
1290101793861,102.694
1290101853861,102.636
1290101913861,102.755
1290101973861,102.561
1290102033861,102.577
1290102093861,102.458
1290102153861,102.547
1290102213861,102.646
1290102273861,102.563
1290102333861,102.493
1290102393861,102.694
1290102453861,102.363
1290102513861,102.564
1290102573861,102.615
1290102633861,102.433
1290102693861,102.514
1290102753861,102.554
1290102813861,102.541
1290102873861,102.317
1290102933861,102.177
1290102993861,102.327
1290103053861,102.243
1290103113861,102.227
1290103173861,102.322
1290103233873,102.506
1290103293873,102.281
1290103353873,102.066
1290103413873,102.319
1290103473873,102.294
1290103533873,102.036
1290103593873,102.368
1290103653873,102.287
1290103713873,102.303
1290103773873,102.278